Location: Guayaquil
(2.1667°S, 79.9000°W)
Time: 21:48:12
(UTC-05:00)

Hubble Space Telescope - Visible Passes

Search period start: 04 October 2023 00:00
Search period end: 14 October 2023 00:00
Orbit: 521 x 525 km, 28.5° (Epoch: 04 October)

Date Brightness Start Highest point End Pass type
(mag) Time Alt. Az. Time Alt. Az. Time Alt. Az.
04 Oct 1.4 04:33:01 45° NNE 04:33:12 46° NNE 04:37:05 10° ESE visible
05 Oct 1.9 04:18:45 42° E 04:18:45 42° E 04:21:37 10° ESE visible
06 Oct 2.9 04:04:25 24° ESE 04:04:25 24° ESE 04:06:05 10° ESE visible
06 Oct 2.7 05:40:20 10° WSW 05:42:55 16° SSW 05:45:31 10° SSE visible
07 Oct 3.7 03:50:00 13° SE 03:50:00 13° SE 03:50:28 10° SE visible
07 Oct 2.9 05:25:26 10° SW 05:27:23 13° SSW 05:29:19 10° S visible
08 Oct 3.1 05:11:07 10° SW 05:11:50 10° SSW 05:12:32 10° SSW visible
